Cocoa Beach, FL

9:28 PM EDT on June 26, 2017 (GMT -0400)
Cape Canaveral Air Station Skid Strip

Weather History for KXMR - November, 2012

Change the Weather History Date:

Tuesday, November 20, 2012

  Actual Average (KCOF) Record (KCOF)
Temperature  
Mean Temperature 64 °F -  
Max Temperature 70 °F 74 °F 82 °F (1998)
Min Temperature 59 °F 63 °F 48 °F (2006)
Growing Degree Days 14 (Base 50)    
Moisture  
Dew Point 59 °F    
Average Humidity 84    
Maximum Humidity 94    
Minimum Humidity 73    
Precipitation  
Precipitation 0.00 in - - ()
Sea Level Pressure  
Sea Level Pressure 30.02 in    
Wind  
Wind Speed 12 mph (NNW)    
Max Wind Speed 17 mph    
Max Gust Speed 26 mph    
Visibility 10 miles    
Events      
Averages and records for this station are not official NWS values.
T = Trace of Precipitation, MM = Missing Value Source: NWS Daily Summary

Daily Weather History Graph

Daily Weather History Graph

Search for Another Location

Airport or City:

Trip Planner

Search our weather history database for the weather conditions in past years. The results will help you decide how hot, cold, wet, or windy it might be!

Date:

Astronomy

Nov. 20, 2012 Rise Set
Actual Time 6:49 AM EST 5:26 PM EST
Civil Twilight 6:23 AM EST 5:51 PM EST
Nautical Twilight 5:55 AM EST 6:20 PM EST
Astronomical Twilight 5:26 AM EST 6:48 PM EST
Moon 12:39 PM EST (11/20) No Moon Set
Length of Visible Light 11h 28m
Length of Day
10h 37m
Waxing Crescent, 51% of the Moon is Illuminated
Nov 20
Waxing Crescent
Nov 28
Full
Dec 6
Last Quarter
Dec 13
New
Dec 20
First Quarter

Hourly Weather History & Observations

Time (EST) Temp. Dew Point Humidity Pressure Visibility Wind Dir Wind Speed Gust Speed Precip Events Conditions
12:55 AM 59.7 °F 58.1 °F 94% 30.03 in 10.0 mi NW 11.5 mph 18.4 mph N/A   Overcast
1:31 AM 60.8 °F 57.2 °F 88% 30.02 in 10.0 mi NW 9.2 mph - N/A   Overcast
1:55 AM 60.4 °F 58.5 °F 93% 30.02 in 10.0 mi NW 11.5 mph - N/A   Overcast
2:55 AM 60.3 °F 58.3 °F 93% 30.00 in 10.0 mi NW 11.5 mph 18.4 mph N/A   Overcast
3:55 AM 59.7 °F 57.9 °F 94% 30.00 in 10.0 mi NW 10.4 mph - N/A   Overcast
4:55 AM 59.9 °F 57.9 °F 93% 30.01 in 10.0 mi NW 10.4 mph - N/A   Overcast
5:55 AM 59.5 °F 57.6 °F 93% 30.01 in 10.0 mi NW 11.5 mph - N/A   Overcast
6:55 AM 59.5 °F 57.7 °F 94% 30.02 in 10.0 mi NW 10.4 mph - N/A   Overcast
7:38 AM 60.8 °F 59.0 °F 94% 30.03 in 10.0 mi NW 9.2 mph - N/A   Overcast
7:48 AM 60.8 °F 59.0 °F 94% 30.04 in 10.0 mi NW 11.5 mph - N/A   Overcast
7:55 AM 61.0 °F 58.6 °F 92% 30.04 in 10.0 mi NW 12.7 mph 19.6 mph N/A   Overcast
8:03 AM 60.8 °F 59.0 °F 94% 30.04 in 10.0 mi NNW 11.5 mph 19.6 mph N/A   Overcast
8:15 AM 62.6 °F 59.0 °F 88% 30.04 in 10.0 mi NW 10.4 mph 18.4 mph N/A   Overcast
8:43 AM 64.4 °F 60.8 °F 88% 30.04 in 10.0 mi NNW 10.4 mph 17.3 mph N/A   Scattered Clouds
8:55 AM 64.8 °F 60.1 °F 85% 30.04 in 10.0 mi NNW 12.7 mph 18.4 mph N/A   Partly Cloudy
9:37 AM 68.0 °F 60.8 °F 78% 30.05 in 10.0 mi North 13.8 mph 26.5 mph N/A   Mostly Cloudy
9:55 AM 68.2 °F 60.8 °F 77% 30.05 in 10.0 mi NNW 12.7 mph 24.2 mph N/A   Overcast
10:46 AM 69.8 °F 60.8 °F 73% 30.05 in 10.0 mi North 17.3 mph 24.2 mph N/A   Scattered Clouds
10:55 AM 70.0 °F 61.2 °F 73% 30.05 in 10.0 mi North 17.3 mph 24.2 mph N/A   Scattered Clouds
11:10 AM 69.8 °F 60.8 °F 73% 30.04 in 10.0 mi NNW 17.3 mph 26.5 mph N/A   Mostly Cloudy
11:55 AM 69.6 °F 61.0 °F 74% 30.03 in 10.0 mi NNW 17.3 mph 20.7 mph N/A   Mostly Cloudy
12:55 PM 69.6 °F 60.6 °F 73% 30.01 in 10.0 mi NNW 17.3 mph 25.3 mph N/A   Mostly Cloudy
1:55 PM 69.1 °F 60.3 °F 73% 29.99 in 10.0 mi NNW 16.1 mph 25.3 mph N/A   Overcast
2:32 PM 68.0 °F 60.8 °F 78% 29.99 in 10.0 mi NNW 12.7 mph 25.3 mph N/A   Mostly Cloudy
2:55 PM 66.9 °F 59.7 °F 78% 29.99 in 10.0 mi NNW 13.8 mph 24.2 mph N/A   Overcast
3:55 PM 66.2 °F 60.3 °F 81% 29.99 in 10.0 mi NNW 15.0 mph 23.0 mph N/A   Overcast
4:55 PM 64.4 °F 59.4 °F 84% 29.99 in 10.0 mi NNW 12.7 mph 21.9 mph N/A   Overcast
5:44 PM 64.4 °F 59.0 °F 83% 29.99 in 10.0 mi NNW 12.7 mph 20.7 mph N/A   Overcast
5:55 PM 63.9 °F 58.6 °F 83% 29.99 in 10.0 mi NNW 13.8 mph - N/A   Overcast
6:34 PM 64.4 °F 59.0 °F 83% 29.99 in 10.0 mi NNW 13.8 mph 20.7 mph N/A   Scattered Clouds
6:55 PM 63.5 °F 59.0 °F 85% 29.99 in 10.0 mi NNW 10.4 mph 20.7 mph N/A   Clear
7:55 PM 63.3 °F 58.6 °F 85% 30.01 in 10.0 mi NNW 11.5 mph 18.4 mph N/A   Partly Cloudy
8:55 PM 62.6 °F 58.5 °F 86% 30.02 in 10.0 mi NNW 8.1 mph - N/A   Clear
9:55 PM 63.3 °F 57.9 °F 83% 30.02 in 10.0 mi NNW 8.1 mph - N/A   Clear
10:55 PM 63.5 °F 57.7 °F 81% 30.02 in 10.0 mi NNW 8.1 mph - N/A   Clear
11:55 PM 64.0 °F 57.2 °F 78% 30.01 in 10.0 mi North 6.9 mph - N/A   Clear